Guymon, OK

11:53 PM CDT on June 26, 2017 (GMT -0500)
Guymon Municipal

Weather History for KGUY - August, 2013

Change the Weather History Date:

Saturday, August 17, 2013

  Actual Average Record
Temperature  
Mean Temperature 77 °F 78 °F  
Max Temperature 89 °F 92 °F 102 °F (1999)
Min Temperature 65 °F 65 °F 58 °F (2012)
Degree Days  
Heating Degree Days 0 0  
Month to date heating degree days 0 0  
Since 1 June heating degree days 0 8  
Since 1 July heating degree days 0 0  
Cooling Degree Days 12 13  
Month to date cooling degree days 218 235  
Year to date cooling degree days 1331 1077  
Since 1 June cooling degree days 1127 969  
Growing Degree Days 27 (Base 50)    
Moisture  
Dew Point 64 °F    
Average Humidity 65    
Maximum Humidity 87    
Minimum Humidity 43    
Precipitation  
Precipitation 0.00 in 0.11 in 1.62 in (2015)
Month to date precipitation 4.20 1.52  
Year to date precipitation 10.55 13.37  
Snow  
Snow 0.00 in - - ()
Month to date snowfall 0.0  
Since 1 June snowfall T  
Since 1 July snowfall 0.0  
Snow Depth 0.00 in    
Sea Level Pressure  
Sea Level Pressure 29.95 in    
Wind  
Wind Speed 11 mph (SSE)    
Max Wind Speed 23 mph    
Max Gust Speed 28 mph    
Visibility 10 miles    
Events      
T = Trace of Precipitation, MM = Missing Value Source: NWS Daily Summary

Daily Weather History Graph

Daily Weather History Graph

Search for Another Location

Airport or City:

Trip Planner

Search our weather history database for the weather conditions in past years. The results will help you decide how hot, cold, wet, or windy it might be!

Date:

Astronomy

Aug. 17, 2013 Rise Set
Actual Time 7:05 AM CDT 8:34 PM CDT
Civil Twilight 6:37 AM CDT 9:01 PM CDT
Nautical Twilight 6:05 AM CDT 9:34 PM CDT
Astronomical Twilight 5:30 AM CDT 10:08 PM CDT
Moon 5:48 PM CDT (8/17) 3:13 AM CDT (8/17)
Length of Visible Light 14h 23m
Length of Day
13h 28m
Waxing Gibbous, 84% of the Moon is Illuminated
Aug 17
Waxing Gibbous
Aug 20
Full
Aug 28
Last Quarter
Sep 5
New
Sep 12
First Quarter

Hourly Weather History & Observations

Time (CDT) Temp. Heat Index Dew Point Humidity Pressure Visibility Wind Dir Wind Speed Gust Speed Precip Events Conditions
12:53 AM 71.1 °F - 63.0 °F 75% 29.99 in 10.0 mi SSE 9.2 mph - N/A   Clear
1:53 AM 70.0 °F - 63.0 °F 78% 29.99 in 10.0 mi SSE 8.1 mph - N/A   Clear
2:53 AM 70.0 °F - 63.0 °F 78% 29.99 in 10.0 mi South 8.1 mph - N/A   Clear
3:53 AM 68.0 °F - 63.0 °F 84% 29.99 in 10.0 mi Calm Calm - N/A   Clear
4:53 AM 66.9 °F - 63.0 °F 87% 29.99 in 10.0 mi South 4.6 mph - N/A   Clear
5:53 AM 66.0 °F - 63.0 °F 90% 29.97 in 10.0 mi South 6.9 mph - N/A   Clear
6:53 AM 66.0 °F - 63.0 °F 90% 29.99 in 10.0 mi South 8.1 mph - N/A   Clear
7:53 AM 66.0 °F - 63.0 °F 90% 29.99 in 10.0 mi South 10.4 mph - N/A   Clear
8:53 AM 68.0 °F - 64.0 °F 87% 29.99 in 10.0 mi South 11.5 mph - N/A   Clear
9:53 AM 71.1 °F - 64.9 °F 81% 30.00 in 10.0 mi South 12.7 mph - N/A   Clear
10:53 AM 75.9 °F - 64.0 °F 67% 29.99 in 10.0 mi South 18.4 mph - N/A   Clear
11:53 AM 81.0 °F 82.5 °F 64.0 °F 56% 29.95 in 10.0 mi SSW 21.9 mph 27.6 mph N/A   Clear
12:53 PM 84.9 °F 85.9 °F 63.0 °F 48% 29.92 in 10.0 mi SSW 20.7 mph 25.3 mph N/A   Clear
1:53 PM 86.0 °F 86.8 °F 63.0 °F 46% 29.91 in 10.0 mi South 11.5 mph - N/A   Clear
2:53 PM 88.0 °F 89.3 °F 64.0 °F 45% 29.89 in 10.0 mi South 9.2 mph - N/A   Clear
3:53 PM 88.0 °F 88.4 °F 62.1 °F 42% 29.88 in 10.0 mi SSE 8.1 mph - N/A   Clear
4:53 PM 88.0 °F 88.7 °F 63.0 °F 43% 29.87 in 10.0 mi SSE 10.4 mph - N/A   Clear
5:53 PM 86.0 °F 88.2 °F 66.0 °F 51% 29.88 in 10.0 mi SE 12.7 mph 20.7 mph N/A   Clear
6:53 PM 82.9 °F 85.4 °F 66.9 °F 58% 29.88 in 10.0 mi SE 16.1 mph 23.0 mph N/A   Clear
7:53 PM 80.1 °F 82.1 °F 66.0 °F 62% 29.90 in 10.0 mi SE 11.5 mph - N/A   Clear
8:53 PM 75.9 °F - 66.0 °F 71% 29.92 in 10.0 mi SE 10.4 mph - N/A   Clear
9:53 PM 73.9 °F - 64.9 °F 73% 29.94 in 10.0 mi SE 10.4 mph - N/A   Clear
10:53 PM 72.0 °F - 64.0 °F 76% 29.96 in 10.0 mi SE 10.4 mph - N/A   Clear
11:53 PM 72.0 °F - 63.0 °F 73% 29.96 in 10.0 mi SSE 9.2 mph - N/A   Clear